Tracking 35334 objects as of 13-Sep-2026
HD Live streaming from Space Station
objects crossing your sky now

STARLINK-6064

Track STARLINK-6064 now!
10-day predictions
STARLINK-6064 is classified as:


NORAD ID: 56805
Int'l Code: 2023-078AQ
Launch date: May 31, 2023
Source: United States (US)
Launch site: AIR FORCE WESTERN TEST RANGE (AFWTR)
Your satellite tracking list
Your tracking list is empty




NASA's NSSDC Master Catalog

Two Line Element Set (TLE):
1 56805U 23078AQ  26256.27852497  .00000029  00000-0  10224-4 0  9993
2 56805  69.9992 211.4277 0003313 268.4666  91.6114 14.98330223181278
Source of the keplerian elements: AFSPC